Regional Weather Roundup
Issued by NWS

Home | Current Version | Previous Version | Graphics & Text | Print | Product List | Glossary Off
Versions: 1 2 3 4 5 6 7 8 9 10 11 12 13 14 15 16 17 18 19 20 21 22 23 24 25 26 27 28 29 30 31 32 33 34 35 36 37 38 39 40 41 42 43 44 45 46 47 48 49 50

000
ASUS43 KMKX 181021
RWRWI

WISCONSIN REGIONAL WEATHER ROUNDUP
NATIONAL WEATHER SERVICE MILWAUKEE/SULLIVAN WI
500 AM CDT SAT APR 18 2015

NOTE: "FAIR" INDICATES FEW OR NO CLOUDS BELOW 12,000 FEET WITH NO
SIGNIFICANT WEATHER AND/OR OBSTRUCTIONS TO VISIBILITY.

WIZ001-002-006>008-014>016-023>028-181100-
NORTHWEST WISCONSIN

CITY           SKY/WX    TMP DP  RH WIND       PRES   REMARKS
SUPERIOR ARPT  CLEAR     41  33  73 E14G21    30.19S
ASHLAND        CLEAR     36  32  85 NE7       30.21R WCI  30
HAYWARD        CLEAR     44  31  60 NE8       30.15R
SIREN          CLEAR     49  28  45 E8        30.12R
CUMBERLAND     CLEAR     46  30  53 NE6       30.10S
RICE LAKE      CLEAR     47  30  51 NE9       30.12S
CHETEK         CLEAR     50  31  48 NE7       30.10S
LADYSMITH      CLEAR     48  31  50 NE8       30.12R
EAU CLAIRE     CLEAR     46  30  53 NE9       30.08R
MENOMONIE      CLEAR     50  29  44 NE3       30.09R
NEW RICHMOND   CLEAR     45  31  57 E3        30.09R
OSCEOLA        CLEAR     50  30  46 NE9G16    30.11R
$$

WIZ003>005-009-010-017-018-181100-
NORTH CENTRAL WISCONSIN

CITY           SKY/WX    TMP DP  RH WIND       PRES   REMARKS
MANITOWISH WTR CLEAR     39  32  75 NE9       30.15R WCI  33
ARBOR VITAE    CLEAR     42  33  68 CALM      30.15R
WOODRUFF       CLEAR     42  33  68 CALM      30.15R
RHINELANDER    CLEAR     44  31  60 NE9G18    30.13R
EAGLE RIVER    CLEAR     39  30  68 NE6       30.14R WCI  35
LAND O LAKES   CLEAR     39  32  75 NE8       30.16R WCI  34
PHILLIPS       CLEAR     43  31  64 NE8       30.12S
TOMAHAWK       CLEAR     45  31  58 CALM      30.13R
MEDFORD        CLEAR     46  30  53 NE10      30.10R
MERRILL        CLEAR     45  30  56 CALM      30.11R
$$

WIZ029-030-035-036-043>047-181100-
CENTRAL WISCONSIN

CITY           SKY/WX    TMP DP  RH WIND       PRES   REMARKS
WAUSAU         FAIR      49  29  46 N3        30.09R
MOSINEE        CLEAR     48  30  49 N12       30.10R
MARSHFIELD     CLEAR     51  30  44 NE15      30.07R
STEVENS POINT  CLEAR     43  31  62 NE9       30.08R
WAUPACA        CLEAR     54  35  48 N7        30.08R
WAUTOMA        CLEAR     41  39  92 N6        30.06R
WISC RAPIDS    CLEAR     52  30  43 NE9       30.08R
CAMP DOUGLAS   CLEAR     37  37  99 W5        30.05S WCI  33
$$

WIZ011>013-019>022-031-037>040-048>050-181100-
NORTHEAST WISCONSIN

CITY           SKY/WX    TMP DP  RH WIND       PRES   REMARKS
ANTIGO         CLEAR     45  32  60 NE12      30.10R
SHAWANO        CLEAR     51  35  53 NE7       30.09R
OCONTO         CLEAR     45  35  67 N8        30.09R
STURGEON BAY   CLEAR     45  34  65 N21G28    30.13R
GREEN BAY      CLEAR     49  38  65 NE14      30.09R
MANITOWOC      CLEAR     51  40  65 N16G24    30.07R
APPLETON       CLEAR     50  34  53 NE16G24   30.08R
CLINTONVILLE   CLEAR     50  32  50 NE8       30.09R
OSHKOSH        CLEAR     45  40  82 NW5       30.06R
$$

WIZ032>034-041-042-053>061-181100-
SOUTHWEST WISCONSIN

CITY           SKY/WX    TMP DP  RH WIND       PRES   REMARKS
LA CROSSE      PTCLDY    51  45  79 CALM      30.04S
SPARTA         CLEAR     35  34  98 CALM      30.06S
VIROQUA        PTCLDY    54  34  45 NE5       30.05S
BOSCOBEL       CLEAR     44  41  89 CALM      30.04S
PRAIRIE DU CHI CLEAR     48  43  81 CALM      30.04R
PLATTEVILLE    PTCLDY    57  43  59 NE7       30.03R
$$

WIZ056-057-062-063-064-067-068-181100-
SOUTH CENTRAL WISCONSIN

CITY           SKY/WX    TMP DP  RH WIND       PRES   REMARKS
REEDSBURG      CLEAR     45  44  95 CALM      30.05R
BARABOO/DELLS  CLEAR     46  40  82 CALM      30.05R
LONE ROCK      CLEAR     44  41  89 CALM      30.04S
MINERAL POINT  CLEAR     59  37  44 NE6       30.04R
MADISON        CLEAR     48  45  89 CALM      30.03S
MIDDLETON      CLEAR     47  43  84 CALM      30.04S
WATERTOWN      CLEAR     45  45  99 CALM      30.03S
MONROE         CLEAR     59  45  58 N7        30.02F
JANESVILLE     PTCLDY    46  45  93 CALM      30.02S
$$

WIZ051-052-058>065-066-070>072-181100-
SOUTHEAST WISCONSIN

CITY           SKY/WX    TMP DP  RH WIND       PRES   REMARKS
MILWAUKEE      PTCLDY    54  43  66 NW7       30.03R
WAUKESHA       CLEAR     48  41  76 CALM      30.04S
MILWAUKEE/TIMM CLEAR     46  41  81 CALM      30.03S
RACINE         PTCLDY    55  44  66 NW8       30.03R
BURLINGTON     PTCLDY    44  42  94 CALM      30.02S
KENOSHA        PTCLDY    55  46  71 NW5       30.02R HAZE
FOND DU LAC    CLEAR     44  40  85 SW3       30.05R
SHEBOYGAN      CLEAR     48  40  73 NW5       30.04R
WEST BEND      CLEAR     45  41  87 CALM      30.04R
JUNEAU         CLEAR     49  42  78 CALM      30.05S
$$

LSZ147-162-181100-
LAKE SUPERIOR

STATION/POSITION TIME  TEMP    WIND        PRES    WAVE
                       AIR SEA DIR/SP/G            HT/PER
                 (UTC) (F)     (DEG/KT/KT) (MB)    (FT/S)
DEVILS ISLAND    1000   39      60/ 14/ 14 1023.8R
PORT WING        0900   44      60/ 15/ 20 1022.0
SAXON HARBOR     0940   40        CALM     1022.4R
$$

LMZ867-665-643>646-181100-
LAKE MICHIGAN

STATION/POSITION TIME  TEMP    WIND        PRES    WAVE
                       AIR SEA DIR/SP/G            HT/PER
                 (UTC) (F)     (DEG/KT/KT) (MB)    (FT/S)
CHAMBERS ISLAND  0900   41     350/ 15/ 16 1018.6R
NORTHPORT PIER   1000   40     330/ 13/ 21 1019.6R
SISTER BAY       0817   48      10/ 19/ 25   N/A
KEWAUNEE LAKESHO 0900   51     350/  9/ 13 1016.6R
SHEBOYGAN LAKESH 1000   56     320/  3/  4 1017.6R
PORT WASHINGTON  0900   59     300/  7/ 10 1016.9
MILWAUKEE LAKESH 1000   59     320/  8/ 10   N/A
KENOSHA   LAKESH 1000   59     320/  5/  6 1016.3S
$$

TC  - TEMPERATURE IN CELSIUS
VSB - VISIBILITY IN STATUTE MILES
WCI - WIND CHILL INDEX
HX  - HEAT INDEX



USA.gov is the U.S. government's official web portal to all federal, state and local government web resources and services.